Погода Имени Попова

Погода Имени Попова : погода сейчас, прогноз погоды и архив. Всё, что Вы хотите узнать о погоде Имени Попова!

Поиск расширенной информации на нашем сайте:

Другие новости

Новости СМИ2

Главная страница сайта

Новости сайта

03.07.2017

Напоминаем, что на нашем специализированном сайте Метеоцентр.Азия вы можете получить высокодетализированные автоматические прогнозы погоды по пунктам России, СНГ и мира в авиационном формате (включающие направление и скорость ветра, видимость, явления погоды, количество и форму облачности, нижнюю и верхнюю границу облачности).


Погода Имени Попова - сегодня

Время (UTC), дата Ветер
(°,м/с) 
Видим.   Явления Облачность Т
(°С)
Тd
(°С)
f(%) Тe
(°С)
Pmin
(гПа)
dP
(гПа)
Po
(мм)
O2
(г/м3)
Тmin Tmax R s Состояние
почвы
15 05.11.18 240 (ЮЗ) 10-14{16}  0500 м  сильн. снег  10/10 210 м 
[Frnb|Ns]
-2.1 -39.1 4 -7  1003.6  -3.3  752  307    -1.1     
03 06.11.18 120 (ЮВ) 0500 м  туман{снег}  9/4 300 м средняя 
[Sc|As trans]
-8.4 -9.4 92 -8  994.3  -0.9  745  311  -8.6    0.5     
15 06.11.18 040 (СВ) 17-20{22}  0200 м  сильная метель  10/10 360 м 
[Sc]
-8.5 -9.6 92 -17  1000.4  2.7  750  313    -4.8  0.5     
03 07.11.18 030 (СВ) 8-10{13}  20000 м  позёмок{снег}  4/4 300 м 
[Sc]
-11.6 -15.1 75 -18  1010.6  1.3  757  320  -11.8    0.3  15  неравномерный
сухой снег
100% 
09 07.11.18 030 (СВ) 20000 м  позёмок  9/3 300 м средняя 
[Sc|Ac trans]
-11.8 -46 4 -19  1012.6  1.2  759  321           
12 07.11.18 030 (СВ) 6{13}  н/о    н/о 
-10.7 -45.2 4 -16  1012.6  759  320           
15 07.11.18 040 (СВ) 8-10{11}  20000 м  позёмок  3/3 300 м 
[Cu med, cong]
-12.6 -46.6 4 -20  1013.3  0.6  759  323    -10.4  0.0     
03 08.11.18 020 (С) 10-12{14}  0200 м  сильная метель  9/9 540 м кучево-дожд. 
[Cb cap]
-12.8 -14.8 85 -21  1018.1  1.3  763  324  -14.2    0.0  21  неравномерный
сухой снег
100% 
12 08.11.18 030 (СВ) 9-12{12}  4000 м  метель{ливн. осадки}  9/9 1200 м кучево-дожд. 
[Cb cap]
-12.1 -16.3 71 -19  1021.3  765  324           
15 08.11.18 020 (С) 8-10{12}  20000 м  позёмок  6/3 300 м кучево-дожд., средняя 
[Cb cap|Ac trans]
-11.3 -15.7 70 -18  1021.6  0.2  766  323    -11.2  0.0     
15 09.11.18 020 (С) 12-15{18}  0500 м  сильная метель{ливн. осадки}  9/9 1260 м кучево-дожд. 
[Cb cap]
-7.6 -10.2 82 -15  1022  0.8  766  319    -7  0.0     
03 10.11.18 320 (СЗ) 4000 м  слаб. снег  10/10 300 м 
[]
-6.8 -8 91 -12  1022.7  -0.7  767  318  -8.9    0.2  19  неравномерный
сухой снег
100% 
15 10.11.18 300 (СЗ) 15-20{20}  0500 м  снег  10/10 210 м 
[Frnb|Ns]
-1.5 -38.6 4 -8  1009.3  -4.5  756  308    -1.5  0.7     
03 11.11.18 010 (С) 10-13{15}  4000 м  слаб. снег  10/10 600 м 
[Ns]
-2.7 -4 91 -8  1002.2  0.4  751  306  -2.7    0.6  18  неравномерный
сухой снег
100% 
09 11.11.18 010 (С) 6{10}  20000 м    10/10 720 м 
[Sc]
-5.7 -9.1 77 -10  1003.6  0.4  752  310           
12 11.11.18 360 (С) 20000 м    10/10 600 м 
[Sc]
-5.9 -41.8 4 -11  1004.2  0.6  753  312           
21 11.11.18 070 (В) 20000 м  {снег}  3/3 300 м 
[Sc]
-15.8 -17.7 85 -21  1007.2  1.3  755  324           
00 12.11.18 080 (В) 20000 м  {снег}  ясно 
-19.5 -21.4 85 -26  1008.2  756  329           
03 12.11.18 090 (В) 20000 м    ясно 
-21.1 -22 92 -27  1010.3  2.1  757  332  -21.6    0.0  18  неравномерный
сухой снег
100% 
06 12.11.18 130 (ЮВ) 20000 м    ясно 
-20.1 -22 85 -23  1011.5  1.3  758  331           
09 12.11.18 150 (ЮВ) 20000 м    4/1 300 м верхняя 
[Sc|Ci fib]
-21.7 -23.5 85 -27  1012.3  0.7  759  334           
12 12.11.18 170 (Ю) 10 км  слаб. снег  8/3 300 м средняя 
[Sc|As trans]
-17.2 -19.1 85 -23  1011.4  -0.9  758  327           
00 13.11.18 200 (Ю) 10-12{15}  4000 м  слаб. снег  10/10 330 м 
[Ns]
-6.2 -7 94 -13  994.4  -4.9  745  308           
03 13.11.18 220 (ЮЗ) 6{12}  0500 м  туман{снег}  ?/?  
-2.6 -2.9 98 -7  990.9  -3.5  743  302  -15.9    0.4  18  неравномерный
сухой снег
100% 
03 15.11.18 330 (СЗ) 8{16}  20000 м  позёмок  4/4 300 м 
[Sc diur, vesp]
-7.3 -9.8 82 -13  1017.4  2.2  763  317  -10      15  неравномерный
сухой снег
100% 
Время (UTC), дата Ветер
(°,м/с) 
Видим.   Явления Облачность Т
(°С)
Тd
(°С)
f(%) Тe
(°С)
Pmin
(гПа)
dP
(гПа)
Po
(мм)
O2
(г/м3)
Тmin Tmax R s Состояние
почвы

Для получения пояснительной информации подведите курсор к названию столбца.

ПОГОДА Имени Попова - архив

Всё, что Вы хотите узнать о погоде Имени Попова - удобно и подробно!

Выберите нужную дату (начиная с 1 января 2015* года) и нажмите кнопку "Найти".
Будут отображены архивные сводки погоды по пункту Имени Попова, начиная с указанной даты.


Отображать данные в формате CSV (для использования в таблицах Excel)


Внимание! Наш архив погоды предназначен исключительно для личного некоммерческого использования в познавательных целях. Если Вам необходимы официальные справки о состоянии погоды (для производственных, юридических, коммерческих и т.п. целей), обращайтесь в органы Росгидромета.

*Примечание: данная дата относится к архиву по метеостанциям СССР (Россия, СНГ, Балтия).
Архив по метеостанциям Зарубежной Европы и Азии (кроме Китая) хранится 10 дней, по другим регионам земного шара (Китай, Африка, Америка, Австралия, Океания) - 1 день.

Имени Попова - район местоположения метеостанции


Название, широта, долгота, высота метеостанции:
Имени Попова 73.3°ш. 70.1°д. 7 м над ур. моря [Российская Федерация]

Дополнительная информация

В oтличие oт бoльшинства пoгoдных сайтoв мы публикуем пoдрoбную метеoинфoрмацию в детальнoм прoфессиoнальнoм фoрмате.

Характеристики температуры и влажнoсти вoздуха измеряются на высoте 2 м в тени вдали oт зданий и деревьев.
Скoрoсть ветра измеряется на высoте 10 м (на урoвне рoста челoвека скoрoсть ветра ниже в 1.5-2 раза). Если метеoстанция нахoдится в гoрoде или в лесу, тo скoрoсть ветра занижена на 2-4 м/с пo сравнению с oткрытым местoм. Скoрoсть ветра над акватoриями крупных рек и oзёр, а также на вершинах хoлмoв на 2-5 м/с выше, чем в oбычных услoвиях.
Атмoсфернoе давление в разных тoчках местнoсти мoжет значительнo oтличаться oт давления на метеoстанции, в зависимoсти oт услoвий рельефа (при пoдъёме на 10 м давление пoнижается примернo на 1 мм рт.ст.).